Vertical_Velocity
-2 -3 -3 -3 -3 -0 -3 -0 -0 -0 1 -2 -0 -1 1 1 2 2 3 -1 1 4 3 2 -4 -2 3 2 5 4 -9 0 3 -3 0 2 -0 2 -1 3 -0 3 1
-3 -4 -1 -0 -1 -2 -2 -1 0 -1 1 -4 -2 -1 -4 -5 7 2 2 4 -0 -2 -1 1 -1 2 -1 5 -0 1 -12 2 4 5 -2 -1 -2 3 2 2 1 2 1
-5 -1 -1 0 -1 -2 -2 -2 -0 -2 1 1 1 2 5 12 -1 3 2 7 1 1 -5 2 3 -1 3 -5 -5 1 3 1 10 8 1 -1 0 3 -1 -1 2 2 1
-7 -4 -3 -2 -1 -2 -2 -2 -2 1 1 -2 0 -1 6 3 -3 2 4 0 -1 2 0 1 -2 0 -1 0 3 -1 -1 3 2 -3 3 4 3 1 4 4 3 -0 -3
-4 -3 -3 -2 -1 -2 -1 -1 -2 -2 0 0 -3 -0 5 -1 -0 6 -4 -7 3 1 4 0 0 -2 -1 -0 6 -0 -2 2 0 4 6 0 -0 -3 -2 1 1 -1 -0
-1 -1 -2 -1 0 -1 -2 -1 -2 -3 -1 -2 -1 1 -4 3 9 -3 9 2 9 3 -2 -0 1 2 2 0 0 -3 4 1 -1 -1 -1 0 1 2 2 1 1 -0 1
-1 -2 -2 -0 -0 -1 -2 -1 -1 -3 -1 -2 -2 -4 1 8 -0 0 -3 9 -9 3 -11 7 -1 -0 0 0 0 -1 0 -3 1 8 2 -3 -2 -1 1 -1 4 -0 -2
-3 -2 -1 -1 -1 -2 -1 -1 -1 -1 -1 -1 1 -0 1 3 2 6 0 2 3 5 -4 6 -1 3 0 -7 0 1 1 3 6 5 2 5 2 -0 2 0 -1 1 0
-3 -1 -1 0 -1 -2 -1 -2 -1 -2 -1 1 1 -1 1 3 3 -3 3 -1 1 2 5 -2 3 0 -1 -0 1 -1 1 1 -1 -1 -2 2 -2 -2 1 0 -1 1 -1
-1 -1 -1 1 1 -1 1 -1 -1 0 -0 1 1 -1 -2 1 -0 1 2 -0 1 4 3 3 4 -1 -2 1 1 2 -1 -1 -1 -3 -4 -1 -1 -2 -1 -1 -1 0 -0
-1 -1 -1 1 0 0 -1 1 -0 -0 2 -0 -0 1 0 3 3 2 3 3 4 -0 2 1 -2 -1 -0 3 7 3 5 -2 -4 0 -1 -1 -1 -0 -1 -1 -1 -0 -1
1 -0 -1 -0 0 -1 0 0 1 1 2 1 2 2 3 2 1 1 2 5 5 7 1 2 0 1 1 1 1 -1 1 -1 -2 -1 -1 -0 0 -1 -0 1 -1 -1 -0
0 -1 0 -0 1 1 -1 1 -1 2 2 2 2 3 2 1 1 1 3 3 4 2 2 2 1 2 3 4 2 -0 -0 -2 -2 -1 -0 0 -1 1 1 -1 -1 1 0
-1 -1 1 -1 -2 -1 3 3 -0 2 1 2 1 2 1 1 -1 3 2 3 6 5 3 2 -0 1 6 0 -2 -1 0 1 2 1 -1 -1 0 -1 -1 -0 -0 -1 -2
1 1 -0 0 1 -1 3 1 -0 2 1 2 1 2 1 -1 -1 0 -1 -1 -1 -2 -8 -2 -3 -1 -3 -2 -0 -1 -2 -1 -1 -1 -0 -1 -1 -1 -1 -1 -1 -1 -1
-0 0 -1 -2 -0 2 1 -1 1 1 1 1 3 5 1 5 3 4 3 2 1 -1 0 -2 -4 -2 -1 -1 -1 -3 -1 -0 -1 -0 -0 -0 -0 -1 -1 -1 -0 -0 -1
-1 -0 -1 1 0 1 1 0 -0 1 0 1 1 3 6 -1 2 2 3 2 2 -2 1 -2 -2 -2 -0 -0 0 1 -1 -1 0 1 0 -0 -0 -0 -1 -1 -1 -1 -1
1 2 1 0 1 2 2 0 0 1 0 -2 4 1 4 2 2 2 -1 -1 -3 6 1 -1 -1 -1 1 -1 -0 -2 -1 -2 -0 0 -0 -0 -0 -0 -1 -0 0 -1 -1
3 -0 1 -1 1 2 2 1 1 1 3 -1 3 7 6 4 4 5 2 3 -2 -2 2 0 1 -0 0 -1 -1 -1 1 -0 0 -0 -0 0 0 -0 -1 1 -0 -1 -2
2 2 3 -0 0 1 2 1 1 1 2 2 2 2 4 6 1 -3 3 1 0 0 -1 -0 -2 0 1 -1 -1 -1 -1 -1 -1 -0 -1 -0 0 0 0 0 -1 -2 -1
-0 1 3 1 1 1 1 1 1 1 1 2 1 2 3 -7 -4 2 -2 0 1 0 -1 -0 -1 -0 -2 -1 -0 -2 -2 -1 -1 -1 -1 -1 -0 -0 -0 -1 -1 0 -0
1 1 0 1 1 0 1 2 1 1 2 1 4 7 -3 3 3 0 0 1 2 2 2 2 1 0 1 1 -1 -1 -1 -1 -1 0 0 -1 -1 -0 -1 -1 0 -1 -1
1 -0 0 0 1 1 1 1 1 1 2 3 4 -4 2 4 2 0 -0 0 1 0 -0 0 0 -1 -1 -1 -1 -1 -0 -0 -0 -1 -1 -1 -1 -1 -1 -1 -1 -1 -1
1 0 -0 1 1 1 2 0 1 2 3 3 -1 -0 2 2 -2 -1 0 1 1 0 1 0 1 1 -1 -1 -1 -1 -0 -1 -1 -1 -1 -1 -1 -1 -1 -1 -1 -1 -2
1 0 0 2 1 1 1 1 2 4 3 1 -1 3 3 1 0 1 -2 -0 1 2 1 0 0 -1 -2 -1 -2 -1 -1 -1 -1 -1 -1 -0 -1 -1 -1 -1 -0 -1 -2
1 1 1 2 1 1 1 1 2 2 1 -0 3 3 -0 2 2 -1 -0 -2 -2 -3 -3 -4 -1 0 -0 -1 -1 -0 -1 -1 -0 -0 -1 -1 -0 -1 -1 -1 -1 -1 -2
Height
1499 1495 1490 1485 1480 1476 1472 1467 1462 1456 1452 1450 1448 1447 1447 1448 1449 1451 1452 1455 1457 1459 1462 1465 1468 1471 1474 1476 1479 1482 1485 1488 1489 1492 1495 1498 1500 1504 1507 1509 1511 1512 1514
1495 1490 1484 1479 1475 1470 1466 1462 1457 1451 1447 1443 1442 1440 1441 1441 1443 1444 1446 1447 1450 1452 1456 1459 1462 1466 1468 1471 1474 1475 1479 1482 1485 1487 1490 1493 1496 1499 1502 1504 1506 1508 1509
1488 1483 1478 1473 1468 1464 1460 1456 1451 1446 1441 1437 1436 1434 1433 1433 1436 1437 1440 1441 1444 1447 1449 1454 1457 1459 1462 1466 1468 1471 1474 1477 1479 1481 1485 1487 1490 1493 1496 1499 1501 1502 1504
1480 1476 1471 1466 1462 1458 1454 1449 1445 1440 1434 1431 1430 1429 1428 1430 1430 1432 1433 1436 1439 1441 1444 1448 1451 1454 1457 1460 1463 1466 1470 1471 1475 1478 1481 1482 1485 1488 1491 1494 1496 1498 1500
1473 1468 1464 1460 1456 1452 1448 1443 1438 1434 1428 1425 1422 1422 1421 1424 1424 1426 1429 1431 1433 1436 1440 1443 1446 1449 1453 1456 1458 1462 1464 1467 1469 1471 1474 1478 1481 1484 1487 1490 1492 1495 1497
1465 1461 1458 1454 1449 1445 1441 1437 1432 1427 1422 1418 1416 1416 1416 1417 1419 1422 1423 1425 1427 1432 1436 1439 1442 1445 1448 1452 1455 1457 1460 1462 1465 1468 1470 1474 1477 1480 1483 1486 1488 1491 1494
1459 1455 1451 1447 1443 1439 1435 1431 1426 1421 1416 1412 1410 1410 1410 1412 1415 1417 1419 1420 1425 1428 1431 1433 1438 1441 1444 1447 1450 1453 1456 1459 1463 1466 1469 1473 1476 1479 1481 1484 1486 1489 1490
1454 1449 1445 1442 1437 1433 1429 1425 1421 1416 1410 1406 1404 1404 1404 1406 1410 1412 1415 1418 1421 1425 1428 1431 1433 1437 1441 1443 1446 1449 1452 1456 1461 1465 1468 1471 1474 1477 1480 1483 1485 1486 1487
1448 1443 1439 1436 1432 1428 1423 1419 1415 1410 1406 1402 1400 1399 1400 1402 1405 1407 1411 1413 1417 1420 1424 1428 1430 1434 1437 1440 1443 1447 1450 1454 1458 1463 1467 1470 1473 1476 1478 1480 1482 1484 1484
1443 1438 1434 1431 1427 1423 1419 1414 1410 1406 1402 1399 1396 1396 1397 1399 1400 1403 1406 1409 1411 1415 1419 1424 1428 1432 1435 1438 1441 1444 1447 1453 1457 1461 1466 1469 1472 1474 1477 1479 1480 1481 1481
1436 1432 1428 1425 1421 1418 1413 1410 1405 1401 1398 1396 1395 1395 1395 1397 1398 1400 1402 1405 1409 1413 1417 1421 1425 1430 1433 1438 1443 1446 1450 1453 1458 1463 1466 1469 1471 1473 1476 1477 1478 1479 1480
1430 1426 1422 1419 1416 1413 1409 1405 1401 1399 1396 1395 1395 1395 1395 1395 1397 1398 1400 1404 1407 1411 1415 1420 1424 1429 1434 1439 1444 1447 1451 1455 1459 1463 1466 1468 1471 1473 1475 1476 1477 1478 1478
1425 1420 1417 1414 1411 1408 1405 1401 1397 1396 1395 1395 1395 1395 1394 1394 1395 1397 1400 1404 1408 1411 1415 1420 1425 1432 1437 1441 1445 1449 1453 1457 1461 1464 1466 1469 1471 1473 1474 1476 1476 1476 1476
1421 1416 1413 1410 1407 1404 1401 1398 1395 1394 1394 1394 1394 1395 1395 1396 1397 1399 1401 1404 1409 1414 1419 1424 1428 1434 1439 1442 1447 1451 1455 1459 1462 1465 1467 1469 1471 1473 1474 1475 1476 1476 1475
1418 1413 1410 1407 1404 1401 1398 1395 1393 1393 1393 1394 1395 1396 1396 1397 1399 1401 1403 1406 1411 1415 1420 1425 1430 1436 1440 1445 1449 1453 1456 1460 1463 1466 1468 1469 1471 1473 1474 1474 1474 1474 1474
1414 1410 1407 1404 1401 1398 1395 1393 1391 1391 1392 1393 1395 1397 1398 1400 1402 1405 1409 1412 1415 1419 1424 1428 1433 1439 1443 1446 1450 1454 1458 1461 1464 1466 1468 1470 1471 1473 1473 1474 1474 1474 1474
1412 1408 1404 1401 1398 1396 1394 1391 1390 1391 1391 1393 1395 1398 1401 1403 1406 1409 1412 1416 1419 1423 1427 1432 1436 1441 1445 1449 1452 1456 1459 1462 1465 1467 1469 1470 1471 1472 1473 1473 1473 1473 1473
1409 1405 1402 1398 1396 1394 1392 1390 1390 1390 1391 1392 1396 1399 1402 1405 1408 1411 1414 1418 1422 1427 1431 1435 1439 1443 1447 1450 1454 1457 1460 1463 1465 1467 1469 1470 1471 1472 1472 1472 1472 1472 1472
1406 1402 1399 1396 1394 1392 1390 1388 1389 1390 1391 1393 1396 1400 1404 1407 1410 1414 1417 1421 1425 1429 1434 1438 1441 1445 1448 1452 1455 1458 1461 1463 1465 1467 1469 1470 1471 1471 1471 1471 1471 1472 1472
1403 1400 1397 1394 1392 1390 1388 1387 1388 1389 1392 1394 1397 1400 1404 1408 1411 1415 1420 1424 1428 1432 1435 1439 1443 1446 1450 1453 1456 1459 1461 1464 1466 1468 1469 1469 1470 1470 1470 1471 1471 1471 1471
1401 1398 1395 1392 1390 1388 1386 1386 1387 1389 1392 1395 1398 1402 1405 1408 1412 1417 1422 1426 1430 1434 1437 1441 1444 1448 1451 1454 1457 1460 1462 1465 1466 1467 1468 1468 1469 1469 1470 1470 1471 1471 1471
1399 1396 1393 1390 1387 1385 1384 1385 1386 1388 1391 1395 1399 1404 1407 1411 1416 1420 1425 1428 1432 1436 1439 1443 1446 1450 1453 1456 1458 1461 1463 1465 1466 1467 1467 1468 1468 1469 1469 1470 1470 1470 1470
1396 1393 1390 1387 1385 1383 1383 1384 1386 1388 1391 1395 1400 1403 1408 1414 1418 1423 1426 1430 1433 1437 1441 1445 1448 1451 1454 1457 1459 1462 1464 1465 1465 1466 1467 1467 1468 1469 1469 1470 1470 1470 1469
1393 1390 1387 1384 1383 1382 1383 1384 1386 1388 1391 1395 1399 1404 1410 1415 1419 1424 1428 1432 1435 1439 1443 1446 1450 1453 1455 1458 1460 1462 1464 1464 1465 1466 1467 1467 1468 1468 1468 1469 1469 1469 1469
1391 1388 1385 1383 1382 1382 1383 1384 1386 1389 1392 1395 1400 1406 1411 1416 1421 1425 1430 1434 1438 1441 1445 1448 1451 1454 1456 1458 1460 1462 1463 1464 1465 1466 1466 1467 1467 1467 1468 1468 1468 1468 1468
1391 1388 1385 1383 1382 1382 1383 1385 1387 1390 1393 1397 1402 1408 1413 1418 1422 1426 1430 1434 1438 1442 1445 1449 1451 1454 1456 1458 1460 1461 1463 1464 1465 1465 1466 1466 1467 1467 1467 1468 1468 1468 1468